Flag for Netherlands Weather past 2 weeks in Maastricht, Netherlands

Now
55 °F

Fog.


Feels Like: 54 °F
Forecast: 48 / 63 °F
Wind: 7 mph from Southwest

Location: Maastricht Airport Zuid Limburg

Current Time: Sep 3, 2015 at 9:21:51 AM

Latest Report: Sep 3, 2015 at 8:55 AM


Visibility: 2 mi

Pressure: 29.98 "Hg

Humidity: 94%

Dew point: 54 °F

Location of MaastrichtLocation

Historic Weather in Maastricht — Graph

°F

Maastricht temperature yesterday

Maximum temperature yesterday: 64 °F (at 1:25 PM)
Minimum temperature yesterday: 50 °F (at 3:25 AM)
Average temperature yesterday: 56 °F

Past Weeks' High & Low Weather Summary

 TemperatureHumidityPressure
High88 °F (Aug 30, 2:25 PM)100% (Aug 23, 9:25 PM)30.24 "Hg (Aug 23, 9:25 PM)
Low50 °F (Aug 29, 5:55 AM)34% (Aug 23, 2:25 PM)29.50 "Hg (Aug 24, 2:25 PM)
Average66 °F73%29.96 "Hg
* Reported Aug 19 7:25 AM — Sep 3 7:55 AM, Maastricht, Weather by CustomWeather, © 2015

Note: Actual official high and low records may vary slightly from our data, if they occured in-between our weather recording intervals... More about our weather records

Advertising

Maastricht weather history for previous 24 hours

 ConditionsComfort  
Time TempWeatherWind HumidityBarometerVisibility
7:55 AM
Thu, Sep 3
52 °FFog.6 mph94%29.98 "Hg1 mi
7:25 AM52 °FFog.7 mph94%29.98 "Hg1 mi
6:55 AM50 °FFog.6 mph100%29.98 "Hg1 mi
6:25 AM52 °FFog.5 mph94%29.98 "Hg2 mi
5:55 AM52 °FFog.6 mph100%29.98 "Hg1 mi
5:25 AM52 °FFog.5 mph100%29.98 "Hg2 mi
4:55 AM52 °FFog.3 mph100%29.98 "Hg1 mi
4:25 AM52 °FFog.3 mph100%29.98 "Hg2 mi
3:55 AM52 °FFog.6 mph100%29.98 "Hg1 mi
3:25 AM54 °FFog.3 mph94%29.98 "Hg2 mi
2:55 AM55 °FFog.3 mph94%29.98 "Hg2 mi
2:25 AM55 °FFog.3 mph94%29.98 "Hg2 mi
1:55 AM55 °FFog.3 mph94%29.98 "Hg2 mi
1:25 AM55 °FFog.2 mph94%29.98 "Hg2 mi
12:55 AM55 °FPassing clouds.3 mph94%30.01 "Hg4 mi
12:25 AM55 °FFog.3 mph94%30.01 "Hg3 mi
11:55 PM
Wed, Sep 2
55 °FPassing clouds.3 mph94%30.01 "Hg4 mi
11:25 PM55 °FPassing clouds.2 mph100%30.01 "Hg4 mi
10:55 PM57 °FPassing clouds.2 mph88%30.01 "HgN/A
10:25 PM57 °FClear.2 mph88%30.01 "HgN/A
9:55 PM55 °FClear.5 mph94%30.01 "HgN/A
9:25 PM55 °FClear.3 mph94%30.01 "HgN/A
8:55 PM55 °FClear.1 mph94%30.01 "HgN/A
8:25 PM55 °FClear.3 mph94%30.01 "HgN/A
7:55 PM55 °FCool.No wind94%30.01 "HgN/A
7:25 PM59 °FClear.1 mph77%30.01 "HgN/A
6:55 PM57 °FScattered clouds.2 mph88%30.01 "HgN/A
6:25 PM57 °FLight rain. Partly sunny.2 mph82%30.01 "HgN/A
5:55 PM55 °FScattered clouds.9 mph88%30.01 "HgN/A
5:25 PM61 °FScattered clouds.6 mph72%30.01 "HgN/A
4:55 PM63 °FClear.7 mph64%30.01 "HgN/A
4:25 PM61 °FClear.8 mph72%30.01 "HgN/A
3:55 PM61 °FPassing clouds.8 mph72%30.01 "HgN/A
3:25 PM61 °FScattered clouds.6 mph72%30.01 "HgN/A
2:55 PM59 °FScattered clouds.6 mph77%30.01 "HgN/A
2:25 PM63 °FMostly cloudy.6 mph68%30.01 "HgN/A
1:55 PM64 °FPassing clouds.9 mph60%30.01 "HgN/A
1:25 PM64 °FScattered clouds.8 mph64%30.01 "HgN/A
12:55 PM63 °FClear.9 mph68%30.04 "HgN/A
12:25 PM61 °FPartly sunny.8 mph77%30.04 "HgN/A
11:55 AM61 °FBroken clouds.12 mph72%30.04 "HgN/A
11:25 AM61 °FCool.9 mph77%30.04 "HgN/A
10:55 AM61 °FPassing clouds.8 mph83%30.04 "HgN/A
10:25 AM59 °FScattered clouds.9 mph82%30.04 "Hg5 mi
9:55 AM55 °FPassing clouds.10 mph94%30.04 "Hg4 mi
9:25 AM55 °FPassing clouds.8 mph94%30.04 "Hg5 mi
Weather by CustomWeather, © 2015

See weather overviewHow to use our weather pages